This is the latest recevied weather packets stored in our database for station/object EA3KZ-1. If no packets are shown the sender has not sent any weather packets the latest 10 day(s).
| Time | Temp. | Humidity | Pressure | Rain* | Wind** | Luminosity | Snow |
|---|---|---|---|---|---|---|---|
| 1777234256 | 18.33° C | 60% | 1015.2 hPa | 0 mm | - | - | - |
| 1777233653 | 18.33° C | 61% | 1015.1 hPa | 0 mm | - | - | - |
| 1777233051 | 18.89° C | 63% | 1015.1 hPa | 0 mm | - | - | - |
| 1777232448 | 18.89° C | 64% | 1014.9 hPa | 0 mm | - | - | - |
| 1777231845 | 18.89° C | 64% | 1014.8 hPa | 0 mm | - | - | - |
| 1777231243 | 18.89° C | 63% | 1014.7 hPa | 0 mm | - | - | - |
| 1777230640 | 19.44° C | 63% | 1014.6 hPa | 0 mm | - | - | - |
| 1777230037 | 19.44° C | 62% | 1014.5 hPa | 0 mm | - | - | - |
| 1777229435 | 19.44° C | 61% | 1014.4 hPa | 0 mm | - | - | - |
| 1777228832 | 20° C | 61% | 1014.3 hPa | 0 mm | - | - | - |
| 1777228230 | 20° C | 60% | 1014.3 hPa | 0 mm | - | - | - |
| 1777227627 | 20.56° C | 60% | 1014.2 hPa | 0 mm | - | - | - |
| 1777227024 | 20.56° C | 59% | 1014 hPa | 0 mm | - | - | - |
| 1777226422 | 21.11° C | 57% | 1013.9 hPa | 0 mm | - | - | - |
| 1777225819 | 21.11° C | 57% | 1013.9 hPa | 0 mm | - | - | - |
| 1777225216 | 21.11° C | 56% | 1014.1 hPa | 0 mm | - | - | - |
| 1777224674 | 21.11° C | 56% | 1014.2 hPa | 0 mm | - | - | - |
| 1777224071 | 21.11° C | 56% | 1014.3 hPa | 0 mm | - | - | - |
| 1777223469 | 21.11° C | 57% | 1014.3 hPa | 0 mm | - | - | - |
| 1777222866 | 21.11° C | 56% | 1014.4 hPa | 0 mm | - | - | - |
| 1777222263 | 21.11° C | 56% | 1014.1 hPa | 0 mm | - | - | - |
| 1777221661 | 21.11° C | 57% | 1014.3 hPa | 0 mm | - | - | - |
| 1777221058 | 21.11° C | 57% | 1014.3 hPa | 0 mm | - | - | - |
| 1777220455 | 21.67° C | 54% | 1014.3 hPa | 0 mm | - | - | - |
| 1777219852 | 21.67° C | 55% | 1014.3 hPa | 0 mm | - | - | - |
* Rain latest hour (hover to see other rain measurements)
** Current wind speed in m/s (hover to see current wind gust speed)